sat.trackr.live / text

‹ back to catalog

PRC TEST SPACECRAFT 4

NORAD 67689 · 2026-024A

PAYLOAD ACTIVE UNKNOWN

§ Identity

Operator
Country
PRC
Launch date
2026-02-07
Launch site
JSC
Launch vehicle
Mass (kg)
RCS (m²)

External: N2YO · Heavens-Above · Gunter

§ Orbital elements

Epoch: 2026-09-19T22:43:20.783712Z

Period
96.52 min
Inclination
49.9938°
Eccentricity
0.0005281
Mean motion
14.91922781 rev/d
Perigee alt
588.3 km
Apogee alt
595.6 km
Semi-major
6,970.1 km
B*
1.6783e-5
RAAN
190.8482°
Arg perigee
44.4290°
Mean anomaly
315.7074°
Rev number
3,358

§ Raw data

PRC TEST SPACECRAFT 41 67689U 26024A   26262.94676833 -.00000073  00000+0  16783-4 0  99932 67689  49.9938 190.8482 0005281  44.4290 315.7074 14.91922781 33581

JSON: /api/v1/satellites/67689 · /tle

For live sub-satellite position, see the globe view (requires WebGL).

§ Visibility from observer

Set your observer location to see the next 7 days of passes ≥ 10°. The values pass through the URL so the page stays shareable.

No JS? Fill the form by hand. The geolocation button needs JavaScript.